Regional Weather Roundup
Issued by NWS

Home | Current Version | Previous Version | Text Only | Print | Product List | Glossary On
Versions: 1 2 3 4 5 6 7 8 9 10 11 12 13 14 15 16 17 18 19 20 21 22 23 24 25 26 27 28 29 30 31 32 33 34 35 36 37 38 39 40 41 42 43 44 45 46 47 48 49 50
000
ASUS43 KLMK 110202
RWRKY
KENTUCKY REGIONAL WEATHER ROUNDUP
NATIONAL WEATHER SERVICE LOUISVILLE KY
1000 PM EDT THU JUL 10 2014

NOTE "FAIR" INDICATES FEW OR NO CLOUDS BELOW 12,000 FEET
WITH NO SIGNIFICANT WEATHER AND/OR OBSTRUCTIONS TO VISIBILITY.

KYZ001>023-026-027-061>063-070>075-110300-
WESTERN AND SOUTH CENTRAL KENTUCKY

CITY           SKY/WX    TMP DP  RH WIND       PRES   REMARKS
PADUCAH        MOCLDY    76  67  73 NE3       30.09R
HENDERSON      PTCLDY    70  64  83 CALM      30.10R
OWENSBORO      MOCLDY    78  58  50 NE5       30.11R
HOPKINSVILLE   MOCLDY    75  65  71 N3        30.11R
BOWLING GREEN  CLEAR     78  61  55 N3        30.11R
GLASGOW        NOT AVBL
$$

KYZ024-025-028>034-038-045-046-053-110300-
NORTH CENTRAL KENTUCKY

CITY           SKY/WX    TMP DP  RH WIND       PRES   REMARKS
LOUISVILLE/SDF PTCLDY    78  55  44 N7        30.11R
LOUISVILLE/LOU CLEAR     77  56  48 N3        30.12R
FORT KNOX      CLEAR     72  60  64 N6        30.11R
$$

KYZ035>037-039>044-047>052-055>060-089>105-110300-
NORTHEAST KENTUCKY

CITY           SKY/WX    TMP DP  RH WIND       PRES   REMARKS
LEXINGTON      CLEAR     73  58  59 N6        30.14R
COVINGTON      PTCLDY    72  55  55 N7        30.14R
FRANKFORT      CLEAR     72  58  61 CALM      30.12R
$$

KYZ054-064>069-076>088-106>120-110300-
SOUTHEAST KENTUCKY

CITY           SKY/WX    TMP DP  RH WIND       PRES   REMARKS
JACKSON        CLEAR     72  59  63 CALM      30.14R
LONDON         CLOUDY    77  62  59 CALM      30.13R
SOMERSET       CLEAR     75  59  57 NE3       30.13R
MIDDLESBORO    MOCLDY    72  62  72 W6        30.13R
MONTICELLO     MOCLDY    71  67  87 CALM      30.13R
$$



USA.gov is the U.S. government's official web portal to all federal, state and local government web resources and services.